TimeCST,TemperatureF,Dew PointF,Humidity,Sea Level PressureIn,VisibilityMPH,Wind Direction,Wind SpeedMPH,Gust SpeedMPH,PrecipitationIn,Events,Conditions,WindDirDegrees,DateUTC
12:21 AM,71.6,66.2,83,29.94,10.0,SSW,11.5,-,N/A,,Overcast,200,2013-01-01 06:21:00
12:32 AM,71.6,66.2,83,29.94,10.0,SSW,9.2,-,N/A,,Overcast,200,2013-01-01 06:32:00
12:44 AM,71.6,66.2,83,29.94,10.0,South,10.4,-,N/A,,Mostly Cloudy,180,2013-01-01 06:44:00
12:53 AM,72.0,66.0,81,29.93,10.0,South,10.4,-,N/A,,Mostly Cloudy,180,2013-01-01 06:53:00
1:53 AM,72.0,66.9,84,29.92,10.0,South,9.2,-,N/A,,Mostly Cloudy,180,2013-01-01 07:53:00
2:53 AM,72.0,66.9,84,29.91,10.0,South,10.4,-,N/A,,Partly Cloudy,180,2013-01-01 08:53:00
3:53 AM,71.1,66.0,84,29.92,10.0,South,5.8,-,N/A,,Partly Cloudy,180,2013-01-01 09:53:00
4:53 AM,69.1,66.0,90,29.92,10.0,Calm,Calm,-,N/A,,Partly Cloudy,0,2013-01-01 10:53:00
5:53 AM,69.1,66.0,90,29.93,10.0,Calm,Calm,-,N/A,,Mostly Cloudy,0,2013-01-01 11:53:00
6:13 AM,69.8,66.2,88,29.93,10.0,Calm,Calm,-,N/A,,Mostly Cloudy,0,2013-01-01 12:13:00
6:53 AM,68.0,66.0,93,29.94,10.0,Calm,Calm,-,N/A,,Mostly Cloudy,0,2013-01-01 12:53:00
7:53 AM,70.0,66.9,90,29.97,10.0,Calm,Calm,-,N/A,,Mostly Cloudy,0,2013-01-01 13:53:00
8:53 AM,70.0,66.0,87,29.99,10.0,WNW,8.1,-,0.00,,Partly Cloudy,290,2013-01-01 14:53:00
9:37 AM,64.4,60.8,88,30.02,10.0,WNW,11.5,-,N/A,,Partly Cloudy,300,2013-01-01 15:37:00
9:53 AM,63.0,59.0,87,30.02,10.0,WNW,13.8,-,N/A,,Partly Cloudy,300,2013-01-01 15:53:00
10:53 AM,62.1,57.9,86,30.03,10.0,NW,13.8,-,0.00,Rain,Light Rain,310,2013-01-01 16:53:00
11:06 AM,62.6,59.0,88,30.04,10.0,NW,10.4,-,0.00,,Mostly Cloudy,320,2013-01-01 17:06:00
11:21 AM,62.6,59.0,88,30.04,10.0,NW,9.2,-,0.00,,Mostly Cloudy,310,2013-01-01 17:21:00
11:34 AM,62.6,59.0,88,30.03,10.0,WNW,10.4,-,0.00,,Overcast,300,2013-01-01 17:34:00
11:53 AM,63.0,59.0,87,30.02,10.0,NW,11.5,-,0.00,,Overcast,320,2013-01-01 17:53:00
12:53 PM,63.0,60.1,90,30.01,9.0,NW,11.5,18.4,N/A,,Overcast,320,2013-01-01 18:53:00
1:15 PM,62.6,60.8,94,30.00,8.0,NW,11.5,-,N/A,,Overcast,320,2013-01-01 19:15:00
1:53 PM,62.1,60.1,93,30.01,7.0,North,17.3,24.2,0.00,Rain,Light Rain,10,2013-01-01 19:53:00
2:53 PM,59.0,55.9,90,30.02,10.0,North,13.8,25.3,0.00,Rain,Light Rain,350,2013-01-01 20:53:00
3:01 PM,59.0,55.4,88,30.03,10.0,North,13.8,25.3,0.00,Rain,Light Rain,350,2013-01-01 21:01:00
3:53 PM,60.1,55.0,83,30.03,10.0,North,12.7,20.7,0.00,,Overcast,350,2013-01-01 21:53:00
4:10 PM,60.8,55.4,82,30.04,10.0,North,15.0,21.9,N/A,,Overcast,360,2013-01-01 22:10:00
4:31 PM,60.8,53.6,77,30.05,10.0,North,15.0,21.9,N/A,,Overcast,350,2013-01-01 22:31:00
4:53 PM,59.0,54.0,83,30.05,10.0,North,12.7,21.9,N/A,,Overcast,360,2013-01-01 22:53:00
5:49 PM,57.2,53.6,88,30.06,10.0,North,15.0,21.9,0.00,Rain,Light Rain,360,2013-01-01 23:49:00
5:53 PM,57.9,54.0,87,30.06,10.0,North,15.0,21.9,0.00,Rain,Light Rain,360,2013-01-01 23:53:00
6:45 PM,57.2,53.6,88,30.09,10.0,North,10.4,19.6,0.00,Rain,Light Rain,350,2013-01-02 00:45:00
6:53 PM,57.0,54.0,89,30.09,10.0,North,12.7,18.4,0.00,Rain,Light Rain,350,2013-01-02 00:53:00
7:53 PM,55.9,54.0,93,30.13,10.0,NNW,10.4,-,0.03,Rain,Light Rain,340,2013-01-02 01:53:00
8:53 PM,55.9,53.1,90,30.14,10.0,NNW,11.5,-,0.01,,Overcast,330,2013-01-02 02:53:00
9:53 PM,55.9,52.0,87,30.15,10.0,NW,9.2,-,0.00,,Overcast,310,2013-01-02 03:53:00
10:25 PM,55.4,51.8,88,30.15,10.0,NNW,10.4,-,0.00,Rain,Light Rain,330,2013-01-02 04:25:00
10:46 PM,55.4,51.8,88,30.14,10.0,NNW,9.2,-,0.00,Rain,Light Rain,330,2013-01-02 04:46:00
10:53 PM,55.0,51.1,86,30.14,10.0,NNW,8.1,-,0.00,,Overcast,330,2013-01-02 04:53:00
11:12 PM,55.4,51.8,88,30.13,10.0,NNW,6.9,-,N/A,,Overcast,340,2013-01-02 05:12:00
11:53 PM,55.0,51.1,86,30.14,10.0,NW,9.2,-,0.00,Rain,Light Rain,320,2013-01-02 05:53:00